User: anonymous   Login
Location: Unspecified
(0.0000°N, 0.0000°E)
Time: 09:57:41
(UTC+00:00)
Language:

E-STAR-II - Orbit

View from above orbital plane
View from above orbital plane
View from above satellite
View from above satellite

Ground track
Ground track

The orbit data is extracted from the following two-line orbital elements,

1 41459U 16025D   21340.86588972  .00007387  00000-0  35067-3 0  9999
2 41459  98.1636 127.7523 0156305 200.7238 158.7562 15.09352503308410
Epoch (UTC): 06 December 2021 20:46:52
Eccentricity: 0.0156305
inclination: 98.1636°
perigee height: 430 km
apogee height: 646 km
right ascension of ascending node: 127.7523°
argument of perigee: 200.7238°
revolutions per day: 15.09352503
mean anomaly at epoch: 158.7562°
orbit number at epoch: 30841

The dashed part of the orbit path shows where the satellite is in the earth's shadow,  

DLR